LB9CG Weather Reports


Display with metric or nautical units.
time (UTC)temp
F
wind
direction
speed
MPH
gust
MPH
rain 1hr
in
rain 24hr
in
rain mn
in
humidity
%
barometer
mb
20260503041017 33 0.0 1.0 0.00 0.00 0.00 96 1008.6
20260503040017 33 0.0 1.0 0.00 0.00 0.00 96 1008.5
20260503035017 33 0.0 0.0 0.00 0.00 0.00 96 1008.4
20260503034017 33 0.0 0.0 0.00 0.00 0.00 96 1008.4
20260503033017 33 0.0 0.0 0.00 0.00 0.00 96 1008.5
20260503032037 33 0.0 0.0 0.00 0.00 0.00 96 1008.5
20260503031017 33 0.0 1.0 0.00 0.00 0.00 95 1008.6
20260503030017 33 0.0 1.0 0.00 0.00 0.00 95 1008.7
20260503025017 33 45 1.0 4.0 0.00 0.00 0.00 95 1009.0
20260503024017 33 293 3.0 9.0 0.00 0.00 0.00 96 1009.1
20260503023017 33 225 2.0 6.0 0.00 0.00 0.00 95 1009.0
20260503021017 33 270 2.0 8.0 0.00 0.00 0.00 96 1008.9
20260503020017 33 0.0 1.0 0.00 0.00 0.00 95 1008.7
20260503015017 32 0.0 0.0 0.00 0.00 0.00 95 1008.7
20260503014017 32 0.0 0.0 0.00 0.00 0.00 95 1008.7
20260503013017 33 0.0 0.0 0.00 0.00 0.00 95 1008.8
20260503012017 33 0.0 1.0 0.00 0.00 0.00 95 1008.8
20260503011017 33 0.0 0.0 0.00 0.00 0.00 94 1009.0
20260503010017 33 45 1.0 3.0 0.00 0.00 0.00 94 1009.2
20260503005017 33 293 2.0 6.0 0.00 0.00 0.00 94 1009.2
20260503004057 34 293 2.0 8.0 0.00 0.00 0.00 94 1009.1
20260503003017 34 0.0 1.0 0.00 0.00 0.00 94 1008.9
20260503002016 34 0.0 0.0 0.00 0.00 0.00 94 1009.0
20260503001037 34 0.0 0.0 0.00 0.00 0.00 93 1009.1
20260503000017 34 0.0 1.0 0.00 0.00 0.00 93 1009.1
20260502235016 34 0.0 2.0 0.00 0.00 0.00 94 1009.2
20260502234016 34 0.0 2.0 0.00 0.00 0.00 93 1009.3
20260502233017 34 0.0 1.0 0.00 0.00 0.00 93 1009.3
20260502232016 34 293 1.0 6.0 0.00 0.00 0.00 93 1009.3
20260502231017 35 0.0 0.0 0.00 0.00 0.00 92 1009.0
20260502230016 35 0.0 0.0 0.00 0.00 0.00 92 1008.9
20260502225016 35 0.0 1.0 0.00 0.00 0.00 92 1009.1
20260502224017 35 315 1.0 3.0 0.00 0.00 0.00 92 1009.1
20260502223017 35 180 1.0 5.0 0.00 0.00 0.00 92 1009.3
20260502222016 35 225 2.0 5.0 0.00 0.00 0.00 91 1009.2
20260502221017 35 293 2.0 11.0 0.00 0.00 0.00 88 1009.3
20260502220016 37 293 3.0 9.0 0.00 0.00 0.00 85 1009.2
20260502215017 37 23 1.0 5.0 0.00 0.00 0.00 84 1009.0
20260502214017 37 23 2.0 7.0 0.00 0.00 0.00 86 1009.1
20260502213037 37 0.0 2.0 0.00 0.00 0.00 88 1009.0
20260502212017 37 0.0 1.0 0.00 0.00 0.00 88 1009.0
20260502211017 37 0 1.0 3.0 0.00 0.00 0.00 88 1009.0
20260502210017 37 0.0 2.0 0.00 0.00 0.00 88 1009.0
20260502205017 37 23 1.0 6.0 0.00 0.00 0.00 89 1009.0
20260502204017 37 23 2.0 7.0 0.00 0.00 0.00 88 1009.0
20260502203017 37 0 3.0 6.0 0.00 0.00 0.00 89 1008.8
20260502202017 37 23 3.0 11.0 0.00 0.00 0.00 90 1008.8
20260502201017 37 23 3.0 7.0 0.00 0.00 0.00 91 1008.7
20260502200017 37 23 2.0 6.0 0.00 0.00 0.00 91 1008.6
20260502195037 38 23 2.0 6.0 0.00 0.00 0.00 90 1008.5
20260502194016 38 23 3.0 11.0 0.00 0.00 0.00 89 1008.4
20260502193016 38 45 4.0 10.0 0.00 0.00 0.00 89 1008.3
20260502192037 38 293 4.0 12.0 0.00 0.00 0.00 88 1008.2
20260502191016 38 45 3.0 10.0 0.00 0.00 0.00 88 1008.1
20260502190016 39 23 3.0 9.0 0.00 0.00 0.00 87 1007.9
20260502185016 39 293 4.0 14.0 0.00 0.00 0.00 87 1007.7
20260502184017 39 293 5.0 18.0 0.00 0.00 0.00 89 1007.6
20260502183016 38 225 2.0 8.0 0.00 0.00 0.00 91 1007.5
20260502182016 38 180 3.0 9.0 0.00 0.00 0.00 91 1007.5
20260502181017 38 248 3.0 11.0 0.00 0.00 0.00 90 1007.4
20260502164016 41 248 3.0 9.0 0.00 0.00 0.00 77 1007.9
20260502163016 41 248 3.0 12.0 0.00 0.00 0.00 77 1007.9
20260502162016 41 248 3.0 11.0 0.00 0.00 0.00 75 1007.9
20260502161016 41 270 2.0 10.0 0.00 0.00 0.00 78 1008.0
20260502152016 41 293 3.0 8.0 0.00 0.00 0.00 81 1008.1
20260502151036 42 248 1.0 6.0 0.00 0.00 0.00 84 1008.1
20260502123016 46 158 2.0 4.0 0.00 0.00 0.00 59 1007.8
20260502122016 45 293 3.0 9.0 0.00 0.00 0.00 61 1007.7
20260502121016 44 158 3.0 9.0 0.00 0.00 0.00 68 1007.7
20260502115036 43 270 4.0 11.0 0.00 0.00 0.00 71 1007.7
20260502114036 44 293 2.0 8.0 0.00 0.00 0.00 69 1007.8
20260502113036 44 225 3.0 11.0 0.00 0.00 0.00 67 1007.6
20260502112016 45 293 3.0 7.0 0.00 0.00 0.00 64 1007.7
20260502111016 45 248 4.0 10.0 0.00 0.00 0.00 61 1007.5
20260502110015 46 113 5.0 13.0 0.00 0.00 0.00 61 1007.5
20260502105015 46 293 3.0 8.0 0.00 0.00 0.00 63 1007.5
20260502104015 47 293 3.0 8.0 0.00 0.00 0.00 62 1007.4
20260502103036 45 293 5.0 11.0 0.00 0.00 0.00 62 1007.5
20260502102015 47 270 3.0 13.0 0.00 0.00 0.00 66 1007.5
20260502101016 46 293 4.0 8.0 0.00 0.00 0.00 63 1007.4
20260502091016 43 248 4.0 9.0 0.00 0.00 0.00 78 1007.1
20260502071015 40 158 1.0 4.0 0.00 0.00 0.00 93 1006.2
20260502070037 40 225 3.0 9.0 0.00 0.00 0.00 93 1006.2
20260502065017 40 180 1.0 4.0 0.00 0.00 0.00 93 1006.1
20260502064017 40 225 2.0 6.0 0.00 0.00 0.00 93 1006.0
20260502063057 40 225 3.0 9.0 0.00 0.00 0.00 93 1005.8
20260502062017 39 248 3.0 7.0 0.00 0.00 0.00 92 1005.8
20260502061015 39 293 2.0 8.0 0.00 0.00 0.00 92 1005.9
20260502060037 40 293 4.0 10.0 0.00 0.00 0.00 92 1005.8
20260502055037 40 293 3.0 9.0 0.00 0.00 0.00 92 1005.7
20260502054017 40 225 1.0 3.0 0.00 0.00 0.00 93 1005.5
20260502053037 40 270 2.0 6.0 0.00 0.00 0.00 93 1005.3
20260502052017 40 225 1.0 4.0 0.00 0.00 0.00 93 1005.3
20260502051017 41 315 3.0 9.0 0.00 0.00 0.00 93 1005.3
20260502050017 41 315 3.0 14.0 0.00 0.00 0.00 93 1005.1
20260502045017 42 248 2.0 7.0 0.00 0.00 0.00 93 1005.0
20260502044017 42 293 5.0 9.0 0.00 0.00 0.00 92 1004.8
20260502043017 43 270 3.0 7.0 0.00 0.00 0.00 90 1004.7
20260502042017 46 293 4.0 15.0 0.00 0.00 0.00 85 1004.6